Location: *
(55.6049°S, 142.1985°W)
Time: 08:45:49
(UTC+00:00)

ATLAS 5 CENTAUR R/B - Pass Details

Date: 12 May 2021
Orbit: 516 x 1141 km, 63.3° (Epoch: 02 May)

Event Time Altitude Azimuth Distance (km) Brightness Sun altitude
Exits shadow 16:04:31 10° 232° (SW) 2,651 4.2 -9.6°
Maximum altitude 16:10:40 77° 146° (SE) 845 2.3 -8.8°
Drops below altitude 10° 16:15:46 10° 58° (ENE) 2,205 6.0 -8.2°
Sets 16:17:55 0° 56° (ENE) 3,033 7.1 -7.9°
